This demonstration page uses our WeatherBlox Daily Observations layout. Learn more.

Left ArrowRight Arrow

Hourly Observations for May 30, 2020

Temp ( °F °C ) Dew Point ( °F °C ) Humidity (%) Winds ( mph kmh ) Pressure ( in mb ) Visibility ( mi km ) Precip ( " mm )
12:54 am 00:54 Mostly Cloudy 61 16.1 47 8.3 60 60 Calm 30.19 1022 10 16.0934 0 0
1:54 am 01:54 Clear 58 14.4 48 8.9 70 70 Calm 30.18 1022 10 16.0934 0 0
2:54 am 02:54 Clear 56 13.3 47 8.3 72 72 N 3 6 30.18 1022 10 16.0934 0 0
3:54 am 03:54 Clear 55 12.8 48 8.9 77 77 Calm 30.19 1022 10 16.0934 0 0
4:54 am 04:54 Mostly Clear 54 12.2 48 8.9 80 80 Calm 30.18 1022 10 16.0934 0 0
5:54 am 05:54 Mostly Cloudy 55 12.8 49 9.4 80 80 NNE 5 7 30.19 1022 10 16.0934 0 0
6:54 am 06:54 Cloudy with Light Rain 57 13.9 50 10 78 78 N 13 20 30.24 1024 10 16.0934 0.001 0.001
7:54 am 07:54 Cloudy with Rain 56 13.3 52 11.1 87 87 NNE 8 13 30.27 1025 6 9.65604 0.01 0.254
8:54 am 08:54 Cloudy with Light Rain 56 13.3 52 11.1 87 87 ENE 13 20 30.27 1025 8 12.87472 0.03 0.762
9:54 am 09:54 Cloudy with Light Rain 56 13.3 52 11.1 87 87 ENE 12 19 30.25 1024 10 16.0934 0.01 0.254
10:54 am 10:54 Cloudy 57 13.9 52 11.1 83 83 NNE 9 15 30.28 1025 10 16.0934 0.001 0.001
11:54 am 11:54 Cloudy 57 13.9 53 11.7 87 87 ENE 9 15 30.27 1025 10 16.0934 0.02 0.508
12:54 pm 12:54 Cloudy 58 14.4 54 12.2 87 87 E 9 15 30.26 1025 10 16.0934 0 0
1:54 pm 13:54 Cloudy 59 15 53 11.7 81 81 E 10 17 30.26 1025 10 16.0934 0 0
2:54 pm 14:54 Cloudy with Light Rain 61 16.1 54 12.2 78 78 E 10 17 30.25 1024 10 16.0934 0.001 0.001
3:54 pm 15:54 Cloudy 64 17.8 54 12.2 70 70 E 12 19 30.23 1024 10 16.0934 0.001 0.001
4:54 pm 16:54 Cloudy 62 16.7 53 11.7 73 73 E 8 13 30.25 1024 10 16.0934 0 0
5:54 pm 17:54 Cloudy 63 17.2 54 12.2 73 73 E 8 13 30.24 1024 10 16.0934 0 0
6:54 pm 18:54 Cloudy 62 16.7 52 11.1 70 70 E 10 17 30.22 1023 10 16.0934 0 0
7:54 pm 19:54 Cloudy 61 16.1 52 11.1 72 72 E 8 13 30.21 1023 10 16.0934 0 0
8:54 pm 20:54 Cloudy 61 16.1 52 11.1 72 72 ESE 7 11 30.2 1023 10 16.0934 0 0
9:54 pm 21:54 Cloudy 61 16.1 51 10.6 70 70 E 6 9 30.22 1023 10 16.0934 0 0
10:54 pm 22:54 Cloudy 61 16.1 51 10.6 70 70 ESE 8 13 30.23 1024 10 16.0934 0 0
11:54 pm 23:54 Cloudy 61 16.1 51 10.6 70 70 ESE 6 9 30.22 1023 10 16.0934 0 0

Powered by AerisWeather